Theta_e
302 302 303 302 302 303 303 304 303 303 303 303 303 303 303 303 301 300 305 305 304 300 297 297 297 297 299 306 306 306 311 312 310 310 310 306 305 306 304 305 306 307 307 307 310
304 304 302 302 302 302 302 303 302 303 303 303 303 303 302 302 299 302 302 301 300 299 295 296 296 297 297 300 301 306 308 308 307 308 309 308 308 307 304 306 305 304 305 307 307
301 301 301 302 302 302 302 302 302 302 302 302 302 301 301 299 298 300 298 298 299 296 296 297 297 296 296 298 299 301 304 306 307 307 307 308 308 307 308 308 307 306 306 304 304
301 301 301 301 301 301 301 301 302 302 302 302 301 300 298 297 293 294 297 297 298 294 294 295 295 296 295 295 295 295 295 296 297 298 299 299 298 298 300 305 307 306 304 304 305
302 301 300 300 300 301 301 301 301 301 301 301 301 300 295 293 294 294 293 293 296 294 293 295 294 295 296 294 294 295 296 297 297 297 297 297 297 297 297 298 298 299 305 307 305
302 301 300 300 300 300 300 300 301 301 300 300 300 298 295 293 294 294 293 293 293 293 293 294 294 294 293 294 294 294 294 293 295 296 295 295 295 296 297 297 297 298 299 303 304
301 300 300 300 299 300 300 300 300 299 298 299 299 297 295 294 294 292 292 292 293 293 293 294 294 293 293 292 293 294 294 294 293 293 292 293 293 293 294 295 297 298 299 302 304
302 300 299 299 299 299 300 300 298 297 297 295 296 296 292 294 292 292 292 292 293 293 293 293 294 293 293 293 293 293 293 294 293 293 293 293 293 293 294 294 295 297 298 299 302
301 300 299 299 299 299 299 296 296 296 294 293 294 292 292 293 292 292 292 292 293 293 293 293 293 293 293 293 293 294 294 294 294 294 293 293 293 293 294 294 295 295 296 298 299
300 299 299 299 299 299 296 292 292 294 292 293 292 291 292 290 292 292 292 292 292 292 292 293 292 292 291 293 294 294 295 294 294 294 294 294 294 294 294 294 294 294 293 294 297
300 300 299 299 298 298 294 292 291 290 291 292 291 292 291 292 292 291 292 292 292 292 292 292 293 292 293 293 294 295 296 296 295 295 295 295 295 294 294 294 294 294 294 294 295
300 299 299 298 298 295 294 293 293 291 293 291 292 292 293 292 290 290 292 292 292 292 292 291 290 292 293 294 295 296 297 297 296 296 296 297 296 294 294 294 293 292 292 293 294
299 299 298 298 297 294 294 293 294 293 287 291 292 292 291 291 290 290 292 292 292 292 292 289 292 293 294 295 295 295 297 297 297 296 296 295 297 296 294 294 293 293 293 293 293
299 299 299 298 295 294 294 293 294 291 282 293 290 291 291 290 290 291 293 292 292 289 292 288 293 295 294 294 294 295 295 296 296 297 296 296 296 295 294 293 293 293 293 293 293
299 299 298 297 296 293 294 291 294 291 287 290 290 291 290 290 290 291 292 291 290 291 288 291 293 294 292 293 294 294 292 294 294 296 296 295 297 293 292 292 293 294 292 293 294
299 299 298 295 295 294 292 293 293 287 285 289 290 289 290 290 291 291 291 290 290 289 289 292 292 292 291 292 291 291 294 292 289 291 288 294 293 293 294 294 293 296 294 293 294
299 298 297 295 294 293 291 291 288 289 287 287 290 290 290 291 292 289 288 284 284 288 288 291 292 292 292 286 287 288 286 286 285 282 289 292 294 293 292 291 291 292 295 294 292
298 298 295 294 295 292 293 288 286 284 284 290 290 290 291 290 289 285 281 282 286 284 283 286 289 291 292 290 286 289 294 295 294 292 292 293 294 293 292 290 290 290 292 293 292
298 297 295 294 294 291 288 285 289 288 290 290 289 286 286 290 286 283 281 282 285 284 288 289 288 290 291 291 288 287 291 294 295 282 286 293 296 292 290 289 288 288 290 290 291
298 295 294 294 292 292 286 290 289 291 291 290 288 285 279 282 283 282 284 287 285 289 290 291 291 291 291 287 289 290 292 292 288 291 288 291 292 291 288 287 287 287 288 288 288
296 293 293 292 292 287 286 287 290 291 291 291 287 285 285 283 283 281 287 289 289 291 290 283 289 288 286 281 285 287 292 294 294 293 291 290 286 290 287 287 286 286 286 286 286
294 295 293 292 287 279 283 287 291 291 291 291 290 289 283 281 280 287 288 289 290 289 284 285 290 283 285 287 285 289 294 294 291 289 291 290 289 288 287 286 285 285 284 284 285
295 295 292 292 289 288 288 290 292 292 291 289 289 290 284 282 282 285 289 289 289 289 282 284 290 292 285 284 286 289 292 293 292 291 290 291 289 288 287 285 284 284 283 283 284
294 296 290 290 288 285 289 291 290 291 291 291 290 290 285 281 285 284 289 289 290 290 291 292 285 287 290 288 286 291 289 291 289 289 289 289 287 286 286 284 283 283 282 281 282
292 295 290 297 292 292 292 292 292 291 292 291 290 290 289 287 280 285 288 288 288 289 289 286 288 280 287 286 287 289 290 290 289 287 288 288 287 285 285 283 282 282 282 281 281
297 293 292 293 292 294 294 295 294 293 292 292 291 291 290 289 287 282 284 287 288 286 283 284 286 278 289 282 285 291 289 291 290 288 287 286 287 285 284 282 281 281 281 281 280
293 292 293 294 295 296 295 294 294 294 294 293 293 291 290 289 289 288 287 287 286 285 289 288 285 283 284 280 285 290 290 289 285 285 285 284 285 284 284 281 281 280 280 280 280
Wind_Speed
21 19 21 23 22 23 23 24 23 23 23 23 24 24 24 26 24 10 10 7 9 15 21 24 24 22 19 3 4 2 7 18 30 30 27 13 14 17 9 17 16 17 5 7 25
22 21 23 23 23 24 24 25 25 25 25 25 25 24 24 21 21 4 11 11 14 16 19 13 6 11 4 3 4 4 10 29 27 18 17 20 21 17 9 22 21 16 16 11 21
25 24 23 24 24 25 27 27 27 26 27 27 25 23 20 17 2 4 12 15 14 12 14 14 11 6 4 3 3 4 19 17 22 20 19 23 27 14 21 28 28 17 18 9 7
24 26 26 26 27 27 28 29 28 28 28 25 22 18 16 6 4 7 11 11 9 14 15 10 5 5 3 5 6 12 17 19 22 20 19 20 26 21 19 29 18 17 12 10 13
22 26 27 28 28 28 29 29 30 29 26 23 18 14 7 3 5 8 15 15 9 16 13 5 5 4 4 11 10 12 17 16 18 22 21 19 25 25 27 25 22 21 24 25 17
21 24 28 29 30 28 30 32 31 29 27 22 13 6 2 2 2 8 14 15 14 17 10 5 4 5 7 7 5 9 17 20 19 19 21 23 26 23 25 17 23 22 24 19 16
24 24 27 28 29 29 31 32 31 28 22 13 8 5 1 6 4 11 17 20 18 15 4 11 7 2 4 9 11 10 14 17 24 25 24 23 26 28 26 20 20 19 21 19 19
24 25 27 29 29 30 30 31 31 23 12 17 5 6 4 4 9 20 24 23 20 16 17 19 17 6 5 6 12 12 12 13 23 18 18 16 22 25 19 18 20 20 16 18 13
24 26 28 30 28 31 28 30 24 11 19 4 6 3 4 5 13 24 22 17 22 14 12 15 8 7 5 6 10 5 12 19 26 20 19 17 21 22 19 19 18 15 17 18 16
26 27 29 30 30 30 26 27 17 5 19 7 6 3 1 5 14 22 19 18 8 7 5 1 2 2 2 3 9 19 16 22 24 31 18 22 23 23 24 25 21 19 9 9 14
27 27 30 32 31 22 24 7 8 6 9 3 9 4 6 11 19 9 15 10 2 3 4 2 2 8 16 11 16 18 18 24 29 28 20 24 22 24 25 21 19 19 16 13 15
25 25 28 31 30 15 17 6 4 5 8 9 11 8 17 12 9 7 5 4 3 8 2 4 7 14 8 9 17 20 21 23 26 21 16 17 25 24 23 20 20 16 14 12 13
25 25 28 31 22 13 7 12 10 5 1 7 5 3 3 7 5 7 2 3 4 4 3 5 13 14 14 15 20 20 16 22 23 23 19 19 26 20 24 22 21 21 19 18 18
25 26 27 31 6 19 1 17 8 3 4 4 3 2 5 5 4 11 1 2 3 5 6 6 4 6 20 17 15 17 11 20 24 16 14 7 14 19 13 15 15 16 17 16 18
24 26 27 23 14 7 10 22 3 2 4 6 3 0 7 3 6 3 5 2 7 9 4 11 10 20 19 11 9 12 18 18 23 20 14 6 5 1 5 6 11 14 17 17 16
24 25 26 22 15 7 21 13 4 5 4 5 5 8 12 5 3 5 4 4 5 5 3 14 9 10 8 12 7 17 10 23 4 3 1 8 6 5 6 12 15 13 15 11 11
22 26 27 13 6 13 19 2 4 4 5 7 4 7 15 5 5 3 6 7 0 7 9 17 3 4 3 10 7 5 7 4 5 4 6 7 9 3 10 15 14 17 13 13 11
25 26 28 11 8 12 5 5 4 3 6 3 5 15 5 3 4 4 5 4 2 2 2 3 15 5 6 4 7 6 3 2 7 6 17 14 4 4 9 10 14 15 14 12 12
23 25 21 6 5 6 4 2 6 6 3 4 11 2 4 2 1 5 3 3 6 5 2 5 7 14 15 4 5 6 2 4 6 3 2 4 3 7 21 16 16 16 15 15 14
15 11 9 5 3 2 3 6 5 6 3 3 5 4 5 5 3 3 2 5 4 7 5 4 15 5 4 4 4 4 5 3 2 5 5 5 2 7 20 18 18 16 15 14 14
6 3 4 6 2 4 3 7 6 6 7 8 6 5 9 3 5 3 6 4 6 5 5 4 5 9 6 2 7 5 1 2 3 3 3 4 4 5 11 13 14 13 14 13 13
2 3 8 7 2 2 3 6 7 7 9 10 7 9 8 5 4 5 8 8 4 2 2 7 4 4 11 12 6 5 3 4 2 4 3 3 4 4 7 10 12 12 14 13 12
2 3 8 6 4 4 4 6 6 7 8 7 6 10 3 7 2 7 6 6 10 2 4 3 4 8 9 6 3 1 4 2 5 5 3 3 4 4 6 10 10 12 12 12 14
2 3 2 3 1 4 4 5 6 7 10 7 6 10 4 4 6 7 6 4 4 6 20 13 1 6 10 14 6 12 11 13 1 2 4 4 7 9 9 10 13 12 12 11 12
2 4 4 6 7 12 8 5 9 7 8 6 4 15 8 6 4 11 16 14 7 17 4 3 6 4 13 16 15 17 13 6 3 5 3 4 5 5 8 8 9 8 10 12 13
5 3 4 5 4 11 15 14 18 15 7 7 15 15 14 13 13 9 6 3 7 3 3 1 5 2 9 8 6 6 5 5 3 2 5 5 4 4 4 6 8 9 10 11 12
4 8 5 10 13 12 7 13 14 14 13 18 17 16 14 27 20 19 14 11 11 8 11 4 3 1 5 3 6 1 3 3 2 3 3 2 4 4 3 7 9 9 9 9 10
Wind_Direction
360 359 356 352 347 343 340 340 338 337 334 333 329 326 324 320 323 356 55 26 12 359 349 343 338 341 341 295 250 356 239 237 239 241 245 289 269 271 313 283 295 291 227 271 317
359 358 351 349 347 342 337 336 336 334 333 331 328 327 327 327 327 359 14 18 357 348 354 351 330 330 309 260 295 212 239 239 251 267 263 280 274 286 309 284 277 280 285 317 333
359 354 350 347 346 343 338 336 333 332 332 330 330 330 328 324 324 51 4 360 3 14 9 352 324 316 249 240 207 243 253 274 272 293 299 294 285 297 258 262 260 281 284 293 336
357 354 351 347 344 341 337 334 333 331 330 330 331 335 333 338 320 20 15 11 11 4 0 350 349 323 289 278 322 289 280 287 290 290 294 290 297 289 289 272 286 276 269 277 283
353 352 349 346 343 341 336 333 329 330 330 328 330 333 336 360 259 2 2 353 343 353 358 330 330 324 301 308 300 275 284 282 294 297 290 286 280 285 276 287 290 304 288 272 269
352 350 348 346 343 339 334 330 328 329 324 320 317 323 291 276 319 349 343 348 338 333 334 337 276 279 280 266 284 271 279 281 281 280 286 285 280 275 274 297 289 284 283 290 267
348 348 347 342 339 337 333 326 325 326 328 324 304 293 236 235 352 344 333 327 322 309 269 285 262 194 305 300 274 268 290 286 278 271 273 277 280 271 279 274 271 263 272 277 274
344 344 345 342 340 337 333 327 323 326 319 336 313 220 244 307 332 341 331 318 316 309 284 278 270 242 193 240 275 284 286 281 272 272 265 260 274 280 283 283 272 265 270 271 271
347 345 343 343 340 338 334 330 324 328 326 43 106 104 285 332 339 324 317 296 307 295 281 278 256 233 263 257 289 202 275 281 285 269 270 264 273 274 270 276 278 275 262 262 272
343 343 343 344 341 340 338 337 337 3 6 81 52 76 310 301 295 304 305 298 268 314 353 28 228 245 281 141 270 290 284 280 276 285 281 276 270 269 273 272 272 263 256 279 278
344 341 342 342 343 346 353 358 15 356 10 284 277 256 284 280 290 287 312 301 8 74 341 290 294 257 275 247 262 276 273 273 276 276 274 271 273 267 266 264 262 262 253 249 258
340 341 342 341 342 355 17 59 109 273 312 300 262 249 265 279 305 310 325 351 359 308 305 334 258 275 285 281 287 284 280 283 283 286 281 280 268 261 261 251 246 245 251 244 242
340 343 342 341 337 340 25 31 347 326 59 295 238 267 289 315 272 270 345 319 295 289 274 187 260 299 294 293 293 284 277 285 286 301 286 270 272 260 258 254 255 257 251 245 245
337 339 342 341 349 333 328 343 350 130 66 285 316 227 358 295 251 304 280 312 322 275 299 233 271 284 301 291 287 286 298 294 289 296 294 27 292 284 258 256 253 253 246 241 243
332 334 337 341 306 310 316 330 336 155 1 302 309 288 324 290 270 282 351 354 241 251 82 253 301 300 301 275 310 278 307 293 292 288 289 300 252 202 296 316 347 326 273 247 243
329 329 333 335 318 289 322 337 126 40 273 333 328 325 336 291 272 301 321 5 275 286 286 254 257 270 237 283 294 310 301 303 344 304 304 262 182 318 14 339 341 334 350 290 256
325 325 327 314 281 314 328 45 23 105 346 303 303 323 317 269 297 25 329 327 123 1 332 322 233 271 250 346 319 33 342 312 342 350 238 278 291 348 2 355 342 334 350 356 360
322 321 324 299 286 320 344 44 72 217 238 289 295 305 257 8 279 323 335 337 10 114 294 327 322 2 299 241 227 291 268 335 305 321 302 300 234 114 27 358 345 342 347 1 8
317 319 311 267 261 327 62 45 202 202 222 273 318 343 290 221 248 16 216 229 216 179 114 314 269 307 290 256 118 292 338 262 273 291 339 276 43 233 356 356 357 350 355 356 359
311 312 285 212 237 89 82 239 220 206 181 185 204 165 244 252 15 44 241 217 233 190 148 239 292 283 280 360 324 155 304 329 344 303 311 304 36 332 348 347 351 351 356 356 350
298 337 219 183 185 65 204 226 231 209 167 197 216 255 230 276 202 240 245 271 210 203 191 200 228 279 7 239 280 340 318 311 263 242 270 304 277 334 356 336 341 348 350 351 347
239 269 179 173 31 211 201 203 210 197 196 239 230 228 199 198 264 240 239 228 213 98 269 216 256 267 247 282 202 185 240 290 257 289 253 278 267 22 358 338 347 354 353 356 350
263 251 186 173 234 220 263 242 219 196 199 207 231 206 157 194 242 213 238 253 264 242 218 240 242 296 328 349 343 201 267 286 284 268 228 269 290 74 358 349 356 359 357 356 1
278 280 267 205 222 176 251 233 236 229 226 206 239 218 165 226 232 266 249 258 220 248 280 287 296 216 263 267 271 298 295 307 162 256 307 242 291 337 356 359 354 0 358 1 4
217 253 187 261 233 231 225 231 221 236 215 203 241 227 190 222 221 233 256 272 254 279 259 132 257 202 256 263 278 274 279 276 219 244 236 300 283 313 347 355 344 352 4 5 9
279 262 229 262 268 253 242 245 241 243 206 212 227 241 212 226 209 210 223 227 250 308 128 216 271 68 288 283 241 247 221 258 224 285 274 286 290 11 327 346 8 6 6 13 8
266 284 278 291 288 270 259 257 253 239 233 231 237 240 223 227 235 239 239 256 239 214 269 237 225 201 263 303 308 339 217 246 211 214 223 280 240 341 332 358 1 9 14 13 7